Tracking 20945 objects as of 9-Jul-2020
HD Live streaming from Space Station
objects crossing your sky now

PSLV DEB

Track PSLV DEB now!
10-day predictions


NORAD ID: 28430
Int'l Code: 2001-049NW
Perigee: 535.5 km
Apogee: 582.3 km
Inclination: 97.7 °
Period: 95.7 minutes
Semi major axis: 6929 km
RCS: 0.011 m2 (small)
Launch date: October 22, 2001
Source: India (IND)
Launch site: SRIHARIKOTA (SRI)

Note: This is SATELLITE DEBRIS
aabbcc
Your satellite tracking list
Your tracking list is empty




NASA's NSSDC Master Catalog

Two Line Element Set (TLE):
1 28430U 01049NW  20189.20480361 +.00000259 +00000-0 +22644-4 0  9993
2 28430 097.6872 178.4228 0033778 294.6558 065.1152 15.04916490929893
Source of the keplerian elements: AFSPC